This is the latest recevied weather packets stored in our database for station/object OK2ZAW-19. If no packets are shown the sender has not sent any weather packets the latest 10 day(s).
| Time | Temp. | Humidity | Pressure | Rain* | Wind** | Luminosity | Snow |
|---|---|---|---|---|---|---|---|
| 1777952169 | 9.44° C | 72% | 1010.2 hPa | - | - | 337 W/m² | - |
| 1777951859 | 9.44° C | 68% | 1010.2 hPa | - | - | 337 W/m² | - |
| 1777951549 | 9.44° C | 68% | 1010.4 hPa | - | - | 337 W/m² | - |
| 1777951238 | 9.44° C | 68% | 1010.5 hPa | - | - | 336 W/m² | - |
| 1777950928 | 9.44° C | 69% | 1010.5 hPa | - | - | 337 W/m² | - |
| 1777950618 | 9.44° C | 68% | 1010.6 hPa | - | - | 337 W/m² | - |
| 1777950307 | 9.44° C | 68% | 1010.7 hPa | - | - | 337 W/m² | - |
| 1777949997 | 9.44° C | 68% | 1010.7 hPa | - | - | 337 W/m² | - |
| 1777949687 | 10° C | 68% | 1010.8 hPa | - | - | 337 W/m² | - |
| 1777949376 | 10° C | 67% | 1010.9 hPa | - | - | 337 W/m² | - |
| 1777948756 | 10° C | 65% | 1011.1 hPa | - | - | 337 W/m² | - |
| 1777948445 | 10° C | 65% | 1011.2 hPa | - | - | 337 W/m² | - |
| 1777947824 | 10° C | 64% | 1011.2 hPa | - | - | 337 W/m² | - |
| 1777947514 | 10.56° C | 62% | 1011.3 hPa | - | - | 337 W/m² | - |
| 1777947203 | 10.56° C | 62% | 1011.3 hPa | - | - | 337 W/m² | - |
| 1777946893 | 10.56° C | 64% | 1011.5 hPa | - | - | 337 W/m² | - |
| 1777946583 | 10.56° C | 62% | 1011.5 hPa | - | - | 337 W/m² | - |
| 1777946272 | 11.11° C | 61% | 1011.5 hPa | - | - | 337 W/m² | - |
| 1777945962 | 11.11° C | 62% | 1011.6 hPa | - | - | 337 W/m² | - |
| 1777945651 | 11.11° C | 63% | 1011.7 hPa | - | - | 337 W/m² | - |
| 1777945341 | 11.67° C | 62% | 1011.5 hPa | - | - | 337 W/m² | - |
| 1777945030 | 11.67° C | 62% | 1011.4 hPa | - | - | 337 W/m² | - |
| 1777944720 | 11.67° C | 61% | 1011.2 hPa | - | - | 337 W/m² | - |
| 1777944409 | 11.67° C | 60% | 1011.2 hPa | - | - | 337 W/m² | - |
| 1777944099 | 11.67° C | 60% | 1011.2 hPa | - | - | 337 W/m² | - |
* Rain since midnight (hover to see other rain measurements)
** Current wind speed in m/s (hover to see current wind gust speed)